Content
SEND FEEDBACK

Daily
Averages
Monthly
Summary
United States of America

AGAT, GUAM


Home > North America > United States > Guam
Elevation: 364 feet     Latitude: 13 33N     Longitude: 144 50E

WEATHER
 
SELECT A DAY
Number of Records: 208,892;   Date Range: 1/1/95 - 7/22/14
 
SHARE

PRINT THIS DATA

[ ← Previous Day ]
WEATHER ALMANAC - JANUARY 8, 2014
[ Next Day → ]
[ °C ]   °F
Weather ElementAverageHighLow
Temperature81.3 °F86 °F (12:54 pm)77 °F (4:54 am)
Dewpoint71.3 °F73 °F (6:54 am)69.8 °F (10:17 am)
Humidity71.9 %88 % (6:54 am)61 % (11:54 am)
Barometer29.83 in29.89 in (10:17 am)29.78 in (2:54 pm)
Wind Speed13.6 mph18.4 mph (9:54 am)
Wind Gust23 mph (10:17 am)
Weather ElementAverage
Visibility10 mi
Wind DirectionENE (65.2 °)

Weather ElementTotal
Precipitation---
Cooling Degree Days16.5 (Base 65)
Growing Degree Days31.5 (Base 50)
Averaged from 25 records on January 8, 2014
WEATHER CONDITIONS BREAKOUT
WIND DIRECTION BREAKOUT
WEATHER BY HOUR - JANUARY 8, 2014
[ °C ]   °F
Local TimeTemperatureDewpointHumidityBarometerVisibilityWind DirectionWind SpeedGust SpeedPrecipitationEventsConditions
1:54 AM78.1 °F72.0 °F81 %29.82 in10.0 miNE (50°)11.5 mphClear
2:54 AM78.1 °F72.0 °F81 %29.81 in10.0 miNE (40°)11.5 mphClear
3:54 AM78.1 °F72.0 °F81 %29.81 in10.0 miNE (40°)10.4 mphPartly Cloudy
4:54 AM77.0 °F72.0 °F84 %29.80 in10.0 miNE (40°)10.4 mph0.00 inPartly Cloudy
5:54 AM77.0 °F72.0 °F84 %29.81 in10.0 miNE (50°)10.4 mphClear
6:54 AM77.0 °F73.0 °F88 %29.82 in10.0 miNE (40°)10.4 mphClear
7:54 AM80.1 °F72.0 °F76 %29.84 in10.0 miENE (60°)11.5 mphPartly Cloudy
8:54 AM82.9 °F73.0 °F72 %29.86 in10.0 miENE (70°)12.7 mphPartly Cloudy
9:54 AM84.0 °F71.1 °F65 %29.86 in10.0 miNE (50°)18.4 mphPartly Cloudy
10:17 AM84.2 °F69.8 °F62 %29.89 in10.0 miENE (70°)15.0 mph23.0 mphMostly Cloudy
10:45 AM82.4 °F69.8 °F66 %29.89 in10.0 miENE (60°)17.3 mph23.0 mphScattered Clouds
10:54 AM84.0 °F70.0 °F63 %29.86 in10.0 miNE (50°)18.4 mphMostly Cloudy
11:54 AM84.9 °F70.0 °F61 %29.84 in10.0 miNE (50°)18.4 mphMostly Cloudy
12:54 PM86.0 °F71.1 °F61 %29.81 in10.0 miEast (100°)15.0 mphMostly Cloudy
1:54 PM84.9 °F71.1 °F63 %29.79 in10.0 miEast (100°)15.0 mphScattered Clouds
2:54 PM84.9 °F71.1 °F63 %29.78 in10.0 miEast (80°)16.1 mph21.9 mphPartly Cloudy
3:54 PM84.0 °F71.1 °F65 %29.79 in10.0 miEast (90°)17.3 mphScattered Clouds
4:54 PM82.9 °F71.1 °F67 %29.79 in10.0 miEast (80°)15.0 mph21.9 mphPartly Cloudy
5:54 PM81.0 °F71.1 °F72 %29.81 in10.0 miEast (80°)12.7 mphPartly Cloudy
6:54 PM81.0 °F70.0 °F69 %29.83 in10.0 miENE (70°)15.0 mphClear
7:54 PM80.1 °F70.0 °F71 %29.84 in10.0 miEast (80°)15.0 mphPartly Cloudy
8:54 PM80.1 °F71.1 °F74 %29.85 in10.0 miENE (70°)11.5 mphClear
9:54 PM80.1 °F72.0 °F76 %29.85 in10.0 miENE (70°)9.2 mphPartly Cloudy
10:54 PM80.1 °F72.0 °F76 %29.85 in10.0 miENE (70°)11.5 mphScattered Clouds
11:54 PM80.1 °F72.0 °F76 %29.83 in10.0 miENE (70°)11.5 mphPartly Cloudy
Hourly data recorded from PGUM, located miles away from Agat, Guam







STORIES FROM OUR PARTNERS